Погода в Топилах

Россия / Рязанская область     53°44′32″N   39°20′16″E
темп.,
°C
ветер,
м/с
пор.,
м/с
влажн.,
%
обл.,
%
осадки,
мм/ч
давл.,
гПа
погр.,
м
14 августа, вс
вс1400:00+20в1165100 0.1 102011
03:00+19юв2274100 0.1 102015
06:00+19в346098 0.0 102067
09:00+22вюв355098 0.0 1020327
12:00+23вюв3354100 0.0 1020332
15:00+26в444378 0.0 1019896
18:00+24всв355372 0.0 1019290
21:00+20св346655 0.0 101957
15 августа, пн
пн1500:00+19всв366870 0.0 101988
03:00+19всв376985 0.0 1019176
06:00+17всв487416 0.0 1019168
09:00+23в57575 0.0 1019476
12:00+27в56435 0.0 10191402
15:00+29в563882 0.0 10182002
18:00+27всв47455 0.0 1018269
21:00+22всв51056100 0.0 1018183
16 августа, вт
вт1600:00+21в5145320 0.0 1019372
03:00+19в4124957 0.0 1020275
06:00+17в4125675 0.0 1020251
09:00+22вюв6104649 0.0 1021563
12:00+26вюв793519 0.0 10201383
15:00+28в783076 0.0 10191853
18:00+27в483857 0.0 1018237
21:00+21всв4115057 0.0 1018199
17 августа, ср
ср1700:00+20всв51254100 0.0 1018259
03:00+19в3659100 0.0 1017137
06:00+19в3760100 0.0 1017149
09:00+23всв354967 0.0 1017259
12:00+29вюв673540 0.0 10171522
15:00+29вюв782765 0.0 10161546
18:00+26в5103783 0.0 1016459
21:00+22всв5134368 0.0 1016302
18 августа, чт
чт1800:00+19всв495367 0.0 1016172
03:00+17всв496997 0.3 1016168
06:00+18всв5126445 0.3 1015235
09:00+23всв7124510 0.3 1015476
12:00+28всв7933100 0.0 10141251
15:00+29всв5732100 0.0 10141548
18:00+25св4945100 0.0 1013226
21:00+23св61344100 0.0 1013301